[[{"header":{"parameterUnit":"m.s-1","parameterCategory":1,"la1":30.2991,"la2":30.254,"lo1":-89.0895,"lo2":-89.0444,"dy":0.0017,"dx":0.0017,"nx":28,"ny":28,"refTime":"2023-09-29T21:00:00:Z","depth":0,"parameterNumber":2,"parameterNumberName":"U-component_of_WINDS"},"data":[0,0,0,0,0,0,0,0,0,0,0,0,0,0,0,0,0,0,0,0,0,0,0,0,0,0,0,0,0,0,0,0,0,0,0,0,0,0,0,0,0,0,0,0,0,0,0,0,0,0,0,0,0,0,0,0,0,0,-4.2046,-4.2048,0,-4.2233,-4.2235,-4.2237,-4.2137,-4.2132,-4.2126,-4.2122,-4.2318,-4.2327,-4.2337,0,0,0,0,0,0,0,0,0,0,0,0,0,-4.1607,-4.1616,-4.2045,-4.2048,-4.205,-4.2232,-4.2235,-4.2237,-4.2137,-4.2131,-4.2125,-4.2119,-4.2314,-4.2326,-4.2338,0,0,0,0,0,0,0,0,0,0,0,0,0,-4.1797,-4.1619,-4.2045,-4.2022,-4.2022,-4.2232,-4.2235,-4.2238,-4.2139,-4.2131,-4.2124,-4.2116,-4.2311,-4.2325,-4.234,-4.2584,0,0,-4.2385,-4.2392,0,0,0,0,0,0,0,0,-4.1786,-4.1813,-4.2023,-4.2024,-4.2024,-4.2153,-4.2152,-4.2354,-4.2141,-4.2095,-4.2122,-4.2113,-4.227,-4.2287,-4.2339,-4.2593,-4.2602,-4.2387,-4.2396,-4.2402,-4.2406,0,0,0,0,0,0,0,-4.1773,-4.1804,-4.212,-4.2026,-4.2027,-4.2004,-4.2023,-4.219,-4.2223,-4.2098,-4.2091,-4.2114,-4.2268,-4.2325,-4.2343,-4.2605,-4.2386,-4.2399,-4.2409,-4.2415,-4.3073,-4.3081,0,0,0,0,0,0,-4.1761,-4.1794,-4.2114,-4.2125,-4.1884,-4.2018,-4.2039,-4.212,-4.222,-4.2228,-4.2121,-4.2109,-4.2303,-4.2326,-4.235,-4.2645,-4.2402,-4.2416,-4.2425,-4.3064,-4.3075,-4.3084,0,0,0,0,0,0,-4.1751,-4.179,-4.2106,-4.1958,-4.1996,-4.2034,-4.2126,-4.2127,-4.2184,-4.2238,-4.2243,-4.2173,-4.2298,-4.2329,-4.2527,-4.2651,-4.2423,-4.2436,-4.3054,-4.3068,-4.3079,-4.3237,0,0,0,0,0,0,-4.1739,-4.1787,-4.1879,-4.1961,-4.2005,-4.2279,-4.2133,-4.2137,-4.2209,-4.2196,-4.2288,-4.2296,-4.2295,-4.2505,-4.2542,-4.2667,-4.2448,-4.3044,-4.306,-4.3075,-4.3221,-4.3253,-4.3281,0,0,0,0,0,-4.1724,-4.1916,-4.1884,-4.1923,-4.212,-4.2286,-4.2312,-4.2306,-4.222,-4.2314,-4.2349,-4.2293,-4.2631,-4.2527,-4.2567,-4.2698,-4.3036,-4.3056,-4.3074,-4.3207,-4.3247,-4.3281,0,0,0,0,0,0,-4.1849,-4.1926,-4.1892,-4.2115,-4.2195,-4.2269,-4.2387,-4.2347,-4.2454,-4.2437,-4.2426,-4.2448,-4.2655,-4.2696,-4.2579,-4.2942,-4.282,-4.2848,-4.2908,-4.2946,-4.2976,-4.2962,-4.246,0,0,0,0,0,-4.1902,-4.2029,-4.2091,-4.2282,-4.2324,-4.2349,-4.2421,-4.241,-4.2492,-4.2526,-4.2575,-4.2659,-4.2784,-4.2867,-4.2985,-4.3226,-4.3246,-4.3336,-4.3367,-4.3391,-4.3416,-4.3551,-4.3592,-4.3147,-4.3147,-4.3147,0,0,-4.2014,-4.2072,-4.2153,-4.2309,-4.2369,-4.2504,-4.2378,-4.2525,-4.2625,-4.2548,-4.2739,-4.2779,-4.2872,-4.3094,-4.3194,-4.3134,-4.3544,-4.3416,-4.3435,-4.3447,-4.3575,-4.3617,-4.3654,-4.316,-4.3158,-4.3156,0,0,-4.2287,-4.2343,-4.251,-4.2573,-4.2666,-4.2682,-4.2722,-4.2803,-4.2826,-4.3017,-4.2964,-4.3084,-4.3299,-4.3368,-4.3432,-4.3735,-4.3689,-4.3773,-4.3932,-4.4063,-4.4098,-4.4129,-4.4241,-4.428,-4.3798,-4.3798,-4.3799,0,-4.2415,-4.2614,-4.2601,-4.2753,-4.2825,-4.2761,-4.2932,-4.2994,-4.3122,-4.3174,-4.3105,-4.3376,-4.3434,-4.3672,-4.3747,-4.3799,-4.3847,-4.3764,-4.4094,-4.4125,-4.4154,-4.426,-4.4301,-4.3808,-4.3807,-4.3806,-4.3805,0,-4.2768,-4.2907,-4.3031,-4.3156,-4.3241,-4.3402,-4.3416,-4.3504,-4.3486,-4.351,-4.3708,-4.3775,-4.3907,-4.3962,-4.3946,-4.4201,-4.4161,-4.4094,-4.3971,-4.4207,-4.4306,-4.4346,-4.3822,-4.3819,-4.3816,-4.3813,0,0,-4.3125,-4.3241,-4.3288,-4.3345,-4.3443,-4.3552,-4.3711,-4.3839,-4.3917,-4.4007,-4.4143,-4.4327,-4.4266,-4.4339,-4.4329,-4.4444,-4.4684,-4.4363,-4.4365,-4.4423,-4.4973,-4.5025,-4.5072,-4.4653,-4.4661,-4.4667,-4.4966,0,-4.3407,-4.3683,-4.3678,-4.3937,-4.4067,-4.4009,-4.4148,-4.4226,-4.4253,-4.4369,-4.4399,-4.4531,-4.4439,-4.4483,-4.4593,-4.4631,-4.4795,-4.4609,-4.4782,-4.4788,-4.4763,-4.5123,-4.5178,-4.5457,-4.5004,-4.5011,-4.5016,0,-4.3772,-4.3875,-4.4146,-4.4229,-4.4283,-4.4408,-4.4527,-4.4637,-4.4725,-4.4737,-4.4819,-4.4793,-4.4958,-4.483,-4.5059,-4.4933,-4.5003,-4.5033,-4.5044,-4.5061,-4.4918,-4.5153,-4.5545,-4.5588,-4.5076,-4.5071,-4.5067,0,-4.4009,-4.4215,-4.4405,-4.4455,-4.4555,-4.4645,-4.4691,-4.4771,-4.4849,-4.4954,-4.5005,-4.5128,-4.5196,-4.5293,-4.5302,-4.5207,-4.5534,-4.5406,-4.5552,-4.5552,-4.5624,-4.562,-4.6036,-4.5666,-4.5665,-4.5665,-4.5664,0,-4.4325,-4.4494,-4.4513,-4.463,-4.4818,-4.4812,-4.4999,-4.5037,-4.511,-4.5235,-4.5193,-4.5312,-4.5315,-4.5438,-4.5446,-4.5636,-4.5666,-4.5683,-4.5684,-4.5688,-4.5687,-4.5736,-4.5718,-4.5676,-4.5673,-4.5671,-4.5669,0,-4.4622,-4.4641,-4.4844,-4.4923,-4.4947,-4.5083,-4.5151,-4.5264,-4.5287,-4.5447,-4.5484,-4.5522,-4.5664,-4.5682,-4.5849,-4.5854,-4.6085,-4.6063,-4.6055,-4.6053,-4.6198,-4.6186,-4.6662,-4.6726,-4.6312,-4.6316,-4.6319,0,-4.4824,-4.4953,-4.5045,-4.5126,-4.5177,-4.5307,-4.5387,-4.5386,-4.5472,-4.5583,-4.5684,-4.5822,-4.5932,-4.6163,-4.6207,-4.6335,-4.6319,-4.6477,-4.6338,-4.634,-4.6325,-4.6318,-4.6332,-4.6505,-4.6509,-4.6513,-4.6516,0,-4.5181,-4.5184,-4.5301,-4.5422,-4.5519,-4.5614,-4.5704,-4.5773,-4.5784,-4.5883,-4.6028,-4.6114,-4.6284,-4.6423,-4.655,-4.66,-4.6563,-4.6559,-4.66,-4.6607,-4.6598,-4.6608,-4.6131,-4.6549,-4.6545,-4.6543,-4.6541,-4.654,-4.5438,-4.5551,-4.5635,-4.5767,-4.5835,-4.592,-4.6031,-4.6069,-4.6189,-4.6327,-4.632,-4.6481,-4.6568,-4.6734,-4.6794,-4.6921,-4.6869,-4.6928,-4.6943,-4.6959,-4.6975,-4.6576,-4.6944,-4.6943,-4.6942,-4.6941,-4.6941,0,-4.5796,-4.5847,-4.5968,-4.6096,-4.6201,-4.6154,-4.6251,-4.6343,-4.6485,-4.6569,-4.6678,-4.6847,-4.6982,-4.7037,-4.7171,-4.7263,-4.7249,-4.7298,-4.7292,-4.7305,-4.7012,-4.6964,-4.7307,-4.7307,-4.7307,-4.7307,-4.7307,-4.7307,-4.5994,-4.6184,-4.6198,-4.6422,-4.6472,-4.6628,-4.6689,-4.6769,-4.6836,-4.7026,-4.7138,-4.7172,-4.7246,-4.7385,-4.7508,-4.7521,-4.7574,-4.7631,-4.7637,-4.7362,-4.7325,-4.729,-4.7246,-4.7642,-4.7643,-4.792,-4.7923,-4.7925]},{"header":{"parameterUnit":"m.s-1","parameterCategory":1,"la1":30.2991,"la2":30.254,"lo1":-89.0895,"lo2":-89.0444,"dy":0.0017,"dx":0.0017,"nx":28,"ny":28,"refTime":"2023-09-29T21:00:00:Z","depth":0,"parameterNumber":3,"parameterNumberName":"V-component_of_WINDS"},"data":[0,0,0,0,0,0,0,0,0,0,0,0,0,0,0,0,0,0,0,0,0,0,0,0,0,0,0,0,0,0,0,0,0,0,0,0,0,0,0,0,0,0,0,0,0,0,0,0,0,0,0,0,0,0,0,0,0,0,-1.0543,-1.0542,0,-1.0523,-1.0522,-1.0522,-1.0508,-1.0508,-1.0507,-1.0507,-1.0488,-1.0488,-1.0487,0,0,0,0,0,0,0,0,0,0,0,0,0,-1.0568,-1.0568,-1.0543,-1.0542,-1.0542,-1.0523,-1.0522,-1.0522,-1.0508,-1.0508,-1.0507,-1.0507,-1.0488,-1.0488,-1.0487,0,0,0,0,0,0,0,0,0,0,0,0,0,-1.0554,-1.0568,-1.0543,-1.0532,-1.0531,-1.0523,-1.0522,-1.0522,-1.0508,-1.0508,-1.0507,-1.0507,-1.0488,-1.0488,-1.0487,-1.0488,0,0,-1.0486,-1.0485,0,0,0,0,0,0,0,0,-1.0555,-1.0553,-1.0534,-1.0533,-1.0532,-1.0517,-1.0525,-1.0511,-1.0508,-1.0517,-1.0507,-1.0507,-1.0498,-1.0497,-1.0494,-1.0487,-1.0486,-1.0486,-1.0485,-1.0485,-1.0485,0,0,0,0,0,0,0,-1.0556,-1.0554,-1.0535,-1.0534,-1.0533,-1.0529,-1.0527,-1.0522,-1.0509,-1.0516,-1.0515,-1.0513,-1.0498,-1.0494,-1.0493,-1.0486,-1.0486,-1.0485,-1.0485,-1.0484,-1.0477,-1.0477,0,0,0,0,0,0,-1.0558,-1.0555,-1.0535,-1.0534,-1.0543,-1.0529,-1.0526,-1.0522,-1.0509,-1.0507,-1.0513,-1.0512,-1.0495,-1.0494,-1.0492,-1.0491,-1.0485,-1.0484,-1.0484,-1.0477,-1.0477,-1.0477,0,0,0,0,0,0,-1.0559,-1.0557,-1.0536,-1.0544,-1.0541,-1.0529,-1.0524,-1.0522,-1.0519,-1.0506,-1.0504,-1.0512,-1.0495,-1.0493,-1.0489,-1.049,-1.0484,-1.0484,-1.0477,-1.0477,-1.0477,-1.0489,0,0,0,0,0,0,-1.056,-1.0557,-1.0557,-1.0544,-1.0541,-1.0533,-1.0524,-1.0522,-1.0517,-1.0516,-1.0505,-1.0503,-1.0495,-1.049,-1.0488,-1.0489,-1.0483,-1.0477,-1.0477,-1.0477,-1.0489,-1.049,-1.0491,0,0,0,0,0,-1.0561,-1.0561,-1.0557,-1.0555,-1.054,-1.0533,-1.0531,-1.0521,-1.0518,-1.0517,-1.051,-1.0503,-1.049,-1.0489,-1.0487,-1.0489,-1.0477,-1.0477,-1.0477,-1.0488,-1.049,-1.0491,0,0,0,0,0,0,-1.0575,-1.056,-1.0554,-1.0551,-1.0543,-1.053,-1.053,-1.0523,-1.0517,-1.0516,-1.0505,-1.0502,-1.0499,-1.0493,-1.0492,-1.0488,-1.0483,-1.0483,-1.0492,-1.0493,-1.0494,-1.0495,-1.0483,0,0,0,0,0,-1.0578,-1.0573,-1.056,-1.0558,-1.0554,-1.0543,-1.0539,-1.0532,-1.0524,-1.0521,-1.0513,-1.0505,-1.0499,-1.0496,-1.049,-1.0488,-1.0485,-1.0488,-1.0489,-1.049,-1.049,-1.0488,-1.0489,-1.0479,-1.0479,-1.0479,0,0,-1.0584,-1.0574,-1.0572,-1.056,-1.0554,-1.0549,-1.054,-1.0535,-1.0532,-1.052,-1.0515,-1.0509,-1.05,-1.0496,-1.0495,-1.0492,-1.0492,-1.049,-1.0491,-1.0491,-1.0489,-1.049,-1.0491,-1.0479,-1.0479,-1.0479,0,0,-1.0591,-1.0584,-1.0581,-1.0575,-1.0564,-1.0557,-1.0556,-1.0544,-1.0539,-1.0534,-1.0525,-1.052,-1.0511,-1.0505,-1.05,-1.0505,-1.0499,-1.0503,-1.0509,-1.0508,-1.0508,-1.0509,-1.0511,-1.0511,-1.0504,-1.0504,-1.0504,0,-1.06,-1.0592,-1.0581,-1.0577,-1.0572,-1.0561,-1.0558,-1.0552,-1.054,-1.0537,-1.0534,-1.0521,-1.0515,-1.0509,-1.051,-1.0507,-1.0506,-1.0505,-1.0509,-1.051,-1.051,-1.0511,-1.0512,-1.0504,-1.0504,-1.0504,-1.0504,0,-1.0603,-1.0597,-1.0597,-1.0585,-1.058,-1.0577,-1.0565,-1.0562,-1.0555,-1.0548,-1.0542,-1.0534,-1.0526,-1.0524,-1.0518,-1.0518,-1.0516,-1.0511,-1.0506,-1.0512,-1.0513,-1.0513,-1.0505,-1.0505,-1.0505,-1.0504,0,0,-1.062,-1.0601,-1.0601,-1.0596,-1.0583,-1.0579,-1.0575,-1.0566,-1.0563,-1.0556,-1.0552,-1.0544,-1.0539,-1.0534,-1.0527,-1.0525,-1.0529,-1.0521,-1.052,-1.0522,-1.0528,-1.0532,-1.0533,-1.0525,-1.0525,-1.0525,-1.0529,0,-1.0625,-1.0617,-1.0607,-1.0602,-1.0597,-1.0586,-1.0582,-1.0574,-1.0567,-1.0562,-1.0554,-1.0548,-1.0543,-1.0539,-1.0537,-1.0529,-1.053,-1.0529,-1.0522,-1.0522,-1.0524,-1.0533,-1.0537,-1.0542,-1.0529,-1.053,-1.053,0,-1.0631,-1.0623,-1.0618,-1.0605,-1.0602,-1.0599,-1.059,-1.0585,-1.0576,-1.0571,-1.0565,-1.0557,-1.0553,-1.0548,-1.0541,-1.054,-1.0537,-1.0532,-1.0532,-1.0531,-1.0526,-1.0533,-1.0543,-1.0543,-1.053,-1.053,-1.053,0,-1.0643,-1.0632,-1.0627,-1.0622,-1.0607,-1.0605,-1.0599,-1.059,-1.0585,-1.0577,-1.0574,-1.0566,-1.0562,-1.0556,-1.0547,-1.0544,-1.0541,-1.0535,-1.0537,-1.0537,-1.0537,-1.0537,-1.0546,-1.0534,-1.0534,-1.0534,-1.0534,0,-1.0651,-1.0648,-1.0632,-1.0629,-1.0625,-1.0614,-1.061,-1.0603,-1.0595,-1.059,-1.058,-1.0576,-1.0564,-1.0559,-1.0551,-1.0547,-1.0545,-1.0541,-1.0539,-1.0542,-1.0542,-1.0539,-1.0539,-1.0535,-1.0535,-1.0535,-1.0535,0,-1.0664,-1.0653,-1.0647,-1.0633,-1.063,-1.0628,-1.0616,-1.0613,-1.0605,-1.0599,-1.0597,-1.0585,-1.0578,-1.0568,-1.0558,-1.0553,-1.055,-1.0547,-1.0553,-1.0552,-1.0553,-1.0553,-1.0561,-1.0562,-1.055,-1.055,-1.055,0,-1.067,-1.0667,-1.0653,-1.0649,-1.0642,-1.0636,-1.0631,-1.062,-1.0615,-1.0604,-1.0602,-1.0594,-1.0587,-1.0577,-1.0567,-1.056,-1.0556,-1.056,-1.0555,-1.0558,-1.0556,-1.0556,-1.0556,-1.0561,-1.0561,-1.0561,-1.0561,0,-1.068,-1.0675,-1.0668,-1.0659,-1.0653,-1.0645,-1.0637,-1.0635,-1.0622,-1.0617,-1.0609,-1.0604,-1.0594,-1.0586,-1.0577,-1.0571,-1.0564,-1.0563,-1.0562,-1.0565,-1.0569,-1.0567,-1.0556,-1.0563,-1.0562,-1.0562,-1.0562,-1.0562,-1.069,-1.0687,-1.0676,-1.0668,-1.0661,-1.0653,-1.0649,-1.0641,-1.0634,-1.0625,-1.0618,-1.0611,-1.0601,-1.0588,-1.0583,-1.0577,-1.0574,-1.0574,-1.0574,-1.0574,-1.0575,-1.057,-1.0575,-1.0575,-1.0575,-1.0575,-1.0575,0,-1.07,-1.0692,-1.0685,-1.0674,-1.0668,-1.0661,-1.0652,-1.0647,-1.0641,-1.0632,-1.0626,-1.0617,-1.0609,-1.0599,-1.0591,-1.0588,-1.0585,-1.0587,-1.0587,-1.0585,-1.0578,-1.0579,-1.0589,-1.0589,-1.0589,-1.0589,-1.0589,-1.0589,-1.0704,-1.0699,-1.0692,-1.0682,-1.0675,-1.0667,-1.0662,-1.0656,-1.0649,-1.0639,-1.0633,-1.0626,-1.0616,-1.0607,-1.06,-1.0597,-1.0595,-1.0597,-1.0594,-1.0587,-1.0586,-1.0585,-1.0585,-1.0597,-1.0597,-1.0601,-1.0601,-1.0601]}]]